Regional Weather Roundup
Issued by NWS State College, PA

Home | Current Version | Previous Version | Text Only | Print | Product List | Glossary On
Versions: 1 2 3 4 5 6 7 8 9 10 11 12 13 14 15 16 17 18 19 20 21 22 23 24 25 26 27 28 29 30 31 32 33 34 35 36 37 38 39 40 41 42 43 44 45 46 47 48 49 50
000
ASUS41 KCTP 242010
RWRCTP

REGIONAL WEATHER ROUNDUP
NATIONAL WEATHER SERVICE STATE COLLEGE PA
400 PM EDT FRI OCT 24 2014

Note: "fair" indicates few or no clouds below 12,000 feet with no
significant weather and/or obstructions to visibility.

* = STATION THAT DOES NOT REPORT PRECIPITATION /E.G. RAIN...SNOW...ETC/
    THUNDER OR FOG.

PAZ002>004-007>009-013>016-020>023-029>032-242100-
WESTERN PENNSYLVANIA

CITY           SKY/WX    TMP DP  RH WIND       PRES   REMARKS
ERIE           MOSUNNY   57  43  59 W10       30.00F
MEADVILLE      MOSUNNY   58  41  53 NW5       30.00F
FRANKLIN*      MOSUNNY   59  41  51 NW7       30.01F
NEW CASTLE       N/A     62  38  41 VRB5      30.01F
BEAVER COUNTY  SUNNY     61  37  41 W8        30.01F
BUTLER*        SUNNY     61  37  41 W9        30.02F
PITTSBURGH INT MOSUNNY   60  37  42 W7        30.01F
PITTSBURGH     SUNNY     59  34  39 W9        30.00F
INDIANA*       SUNNY     57  41  54 W9G15     30.03F
LATROBE        MOSUNNY  N/A N/A N/A W9        30.03F
WASHINGTON CO* SUNNY     61  37  41 W8        30.03F
$$

PAZ004>006-010>012-017>019-024>028-033>037-041-042-045-046-049>053-242100-
CENTRAL PENNSYLVANIA

CITY           SKY/WX    TMP DP  RH WIND       PRES   REMARKS
BRADFORD       MOSUNNY   56  31  38 NW14G20   29.97S
DUBOIS         MOSUNNY   56  37  49 NW10      29.97S
CLEARFIELD     MOSUNNY   61  36  39 W12       29.96F
JOHNSTOWN      PTSUNNY   52  37  56 W12       29.98F
ALTOONA        PTSUNNY   56  36  47 NW16      29.96R
STATE COLLEGE  SUNNY     61  36  39 NW9       29.93S
WILLIAMSPORT   SUNNY     70  25  18 W12       29.84F
SELINSGROVE    SUNNY     68  31  25 W6G17     29.86F
FT INDIANTOWN  MOSUNNY   66  35  31 NW10G21   29.86R
CAPITAL CITY   PTSUNNY   66  34  30 NW12      29.87S
HARRISBURG     PTSUNNY   64  36  35 NW14      29.86S
YORK           PTSUNNY   66  32  28 NW13G22   29.88S
$$

PAZ038>040-043-044-047-048-054-055-060>062-067>071-242100-
EASTERN PENNSYLVANIA

CITY           SKY/WX    TMP DP  RH WIND       PRES   REMARKS
SCRANTON       SUNNY     65  40  39 NW15G22   29.84S
MOUNT POCONO   SUNNY     60  40  47 NW18G25   29.81F
ALLENTOWN      SUNNY     68  42  38 NW14      29.81S
QUAKERTOWN*    CLEAR     68  45  42 N12G17    29.81F
READING        SUNNY     68  41  37 NW20      29.81F
LANCASTER      MOSUNNY   64  39  39 NW15      29.84F
COATESVILLE    PTCLDY    64  45  48 NW16G22   29.84S
POTTSTOWN      SUNNY     67  44  43 NW9G17    29.82S
BLUE BELL      SUNNY     70  45  40 NW9G16    29.80S
DOYLESTOWN     SUNNY     67  42  40 NW10G25   29.79S
WILLOW GROVE   NOT AVBL
NORTH PHILA    SUNNY     71  42  35 N14       29.81S
PHILADELPHIA   PTSUNNY   69  44  40 NW13      29.81S
$$



USA.gov is the U.S. government's official web portal to all federal, state and local government web resources and services.